CW5629 Weather Reports


time (UTC)temp
F
wind
direction
speed
knots
gust
knots
rain 1hr
in
rain 24hr
in
rain mn
in
humidity
%
barometer
mb
20260508054114 51 112 0.0 0.9 0.00 0.00 0.00 90 1013.4
20260508053126 51 112 0.0 0.0 0.00 0.00 0.00 90 1013.3
20260508052119 51 111 0.0 0.0 0.00 0.00 0.00 90 1013.3
20260508051123 50 111 0.0 0.0 0.00 0.00 0.00 90 1013.3
20260508050118 50 111 0.0 0.0 0.00 0.00 0.00 89 1013.3
20260508045121 50 111 0.0 0.0 0.00 0.00 0.00 89 1013.2
20260508044111 50 111 0.0 0.0 0.00 0.00 0.00 89 1013.2
20260508043123 50 115 0.0 0.0 0.00 0.00 0.00 89 1013.2
20260508042113 50 115 0.0 0.0 0.00 0.00 0.00 89 1013.2
20260508041127 50 114 0.0 0.0 0.00 0.00 0.00 89 1013.0
20260508040140 50 116 0.0 0.0 0.00 0.00 0.00 89 1012.9
20260508035132 51 116 0.0 0.0 0.00 0.00 0.00 89 1013.0
20260508034115 51 116 0.0 0.0 0.00 0.00 0.00 89 1013.2
20260508033128 51 116 0.0 0.0 0.00 0.00 0.00 89 1013.3
20260508032114 51 116 0.0 0.9 0.00 0.00 0.00 89 1013.4
20260508031128 51 116 0.0 0.0 0.00 0.00 0.00 89 1013.4
20260508030141 51 116 0.0 0.0 0.00 0.00 0.00 89 1013.5
20260508025133 51 116 0.0 0.0 0.00 0.00 0.00 89 1013.6
20260508024117 51 116 0.0 0.9 0.00 0.00 0.00 89 1013.5
20260508023129 51 129 0.0 0.0 0.00 0.00 0.00 89 1013.7
20260508022122 51 129 0.0 0.0 0.00 0.00 0.00 89 1013.6
20260508021134 51 129 0.0 0.0 0.00 0.00 0.00 90 1013.6
20260508020120 51 129 0.0 0.0 0.00 0.00 0.00 90 1013.8
20260508015133 51 129 0.0 0.0 0.00 0.00 0.00 90 1013.8
20260508014126 51 129 0.0 0.9 0.00 0.00 0.00 90 1013.7
20260508013120 51 110 0.0 0.0 0.00 0.00 0.00 90 1013.7
20260508012125 51 110 0.0 0.9 0.00 0.00 0.00 90 1013.8
20260508010111 51 122 0.0 0.0 0.00 0.00 0.00 90 1013.9
20260508005123 51 122 0.0 0.0 0.00 0.00 0.00 90 1014.0
20260508004137 51 122 0.0 0.9 0.00 0.00 0.00 90 1014.1
20260508003123 52 122 0.0 0.0 0.00 0.00 0.00 90 1014.0
20260508002136 52 122 0.0 0.0 0.00 0.00 0.00 90 1014.0
20260508001122 52 122 0.0 0.0 0.00 0.00 0.00 89 1014.1
20260508000135 52 122 0.0 0.0 0.00 0.00 0.00 89 1014.2
20260507235121 52 122 0.0 0.0 0.00 0.00 0.00 89 1014.2
20260507234114 52 122 0.0 0.9 0.00 0.00 0.00 88 1014.2
20260507233120 52 123 0.0 0.9 0.00 0.00 0.00 88 1014.3
20260507232113 52 123 0.0 0.9 0.00 0.00 0.00 88 1014.3
20260507231120 52 119 0.0 0.9 0.00 0.00 0.00 88 1014.3
20260507230131 52 119 0.0 0.0 0.00 0.00 0.00 87 1014.3
20260507225124 52 119 0.0 0.9 0.00 0.00 0.00 86 1014.3
20260507224157 52 119 0.0 0.0 0.00 0.00 0.00 86 1014.3
20260507223122 52 119 0.0 0.9 0.00 0.00 0.00 85 1014.4
20260507222113 52 120 0.0 0.0 0.00 0.00 0.00 84 1014.4
20260507221125 52 113 0.0 0.0 0.00 0.00 0.00 83 1014.4
20260507220116 52 113 0.0 0.9 0.00 0.00 0.00 83 1014.5
20260507215135 52 103 0.0 0.9 0.00 0.00 0.00 82 1014.6
20260507214112 52 120 0.0 0.9 0.00 0.00 0.00 81 1014.5
20260507213118 52 113 0.0 0.0 0.00 0.00 0.00 81 1014.5
20260507212130 52 113 0.0 0.0 0.00 0.00 0.00 81 1014.4
20260507211117 52 113 0.0 0.0 0.00 0.00 0.00 80 1014.4
20260507210158 53 113 0.0 0.0 0.00 0.00 0.00 79 1014.3
20260507205143 53 113 0.0 0.0 0.00 0.00 0.00 79 1014.3
20260507204115 53 113 0.0 0.9 0.00 0.00 0.00 79 1014.2
20260507203128 53 113 0.0 0.9 0.00 0.00 0.00 80 1014.1
20260507202141 53 120 0.0 0.9 0.00 0.00 0.00 80 1014.1
20260507201126 53 120 0.0 0.9 0.00 0.00 0.00 79 1014.0
20260507200119 53 120 0.0 0.0 0.00 0.00 0.00 79 1013.9
20260507195126 53 120 0.0 0.9 0.00 0.00 0.00 78 1013.8
20260507194137 53 120 0.0 0.9 0.00 0.00 0.00 78 1013.7
20260507193128 53 122 0.0 0.9 0.00 0.00 0.00 78 1013.7
20260507192120 53 113 0.0 0.0 0.00 0.00 0.00 77 1013.7
20260507191154 53 114 0.0 0.9 0.00 0.00 0.00 76 1013.6
20260507190120 54 117 0.0 0.0 0.00 0.00 0.00 75 1013.6
20260507185153 54 104 0.0 0.9 0.00 0.00 0.00 73 1013.5
20260507184124 55 120 0.0 0.9 0.00 0.00 0.00 72 1013.5
20260507183130 56 120 0.0 0.9 0.00 0.00 0.00 71 1013.5
20260507182122 56 82 0.0 0.9 0.00 0.00 0.00 70 1013.5
20260507181135 57 95 0.0 0.9 0.00 0.00 0.00 71 1013.4
20260507180147 57 108 0.0 0.9 0.00 0.00 0.00 70 1013.5
20260507175112 57 104 0.0 1.7 0.00 0.00 0.00 67 1013.5
20260507174126 57 120 0.0 0.9 0.00 0.00 0.00 64 1013.5
20260507173116 57 304 0.0 1.7 0.00 0.00 0.00 63 1013.5
20260507172148 58 122 0.0 0.9 0.00 0.00 0.00 61 1013.6
20260507171112 58 116 0.0 0.9 0.00 0.00 0.00 60 1013.7
20260507170125 58 96 0.0 0.9 0.00 0.00 0.00 58 1013.6
20260507165131 58 97 0.0 0.9 0.00 0.00 0.00 59 1013.7
20260507164144 58 119 0.0 0.9 0.00 0.00 0.00 61 1013.6
20260507163115 58 115 0.0 0.9 0.00 0.00 0.00 63 1013.7
20260507162121 58 105 0.0 0.9 0.00 0.00 0.00 61 1013.6
20260507161113 59 133 0.0 1.7 0.00 0.00 0.00 60 1013.7
20260507160120 59 126 0.0 1.7 0.00 0.00 0.00 58 1013.7
20260507155114 60 127 0.0 5.2 0.00 0.00 0.00 55 1013.8
20260507154127 61 110 0.0 1.7 0.00 0.00 0.00 57 1013.8
20260507153113 61 80 0.0 2.6 0.00 0.00 0.00 56 1013.7
20260507152126 61 115 0.0 3.5 0.00 0.00 0.00 54 1013.8
20260507151132 61 120 0.0 1.7 0.00 0.00 0.00 54 1013.8
20260507150122 61 98 0.0 2.6 0.00 0.00 0.00 57 1013.9
20260507145136 62 112 0.0 2.6 0.00 0.00 0.00 52 1014.0
20260507144141 62 129 0.0 1.7 0.00 0.00 0.00 50 1014.0
20260507143114 62 117 0.0 2.6 0.00 0.00 0.00 52 1014.0
20260507142128 62 94 0.0 1.7 0.00 0.00 0.00 52 1014.1
20260507141113 62 123 0.0 4.3 0.00 0.00 0.00 54 1014.3
20260507140147 61 110 0.0 2.6 0.00 0.00 0.00 55 1014.4
20260507135139 61 110 0.0 2.6 0.00 0.00 0.00 54 1014.4
20260507134124 60 106 0.0 3.5 0.00 0.00 0.00 53 1014.3
20260507133118 61 108 0.0 2.6 0.00 0.00 0.00 51 1014.3
20260507132151 62 113 0.9 1.7 0.00 0.00 0.00 51 1014.4
20260507131115 63 288 0.9 2.6 0.00 0.00 0.00 52 1014.5
20260507130129 62 134 0.0 1.7 0.00 0.00 0.00 56 1014.4
20260507125143 61 336 0.9 4.3 0.00 0.00 0.00 60 1014.4
20260507124134 61 101 0.0 3.5 0.00 0.00 0.00 64 1014.3
20260507123120 61 114 0.0 3.5 0.00 0.00 0.00 66 1014.5
20260507122153 61 124 0.0 3.5 0.00 0.00 0.00 70 1014.6
20260507121146 59 76 0.0 2.6 0.00 0.00 0.00 73 1014.5
20260507120138 58 91 0.0 1.7 0.00 0.00 0.00 77 1014.6
20260507115125 57 117 0.0 1.7 0.00 0.00 0.00 78 1014.7
20260507114138 57 95 0.0 1.7 0.00 0.00 0.00 77 1014.7
20260507113124 57 133 0.0 1.7 0.00 0.00 0.00 76 1014.7
20260507112136 57 339 0.9 2.6 0.00 0.00 0.00 77 1014.6
20260507111122 58 127 0.0 0.9 0.00 0.00 0.00 77 1014.7
20260507110136 58 107 0.0 2.6 0.00 0.00 0.00 75 1014.7
20260507105147 59 116 0.0 1.7 0.00 0.00 0.00 74 1014.6
20260507104139 60 110 0.0 2.6 0.00 0.00 0.00 73 1014.7
20260507103130 60 84 0.0 2.6 0.00 0.00 0.00 74 1014.7
20260507102117 60 89 0.0 0.9 0.00 0.00 0.00 74 1014.6
20260507101130 60 143 0.9 4.3 0.00 0.00 0.00 73 1014.7
20260507100136 61 108 0.0 1.7 0.00 0.00 0.00 73 1014.8
20260507095112 60 102 0.0 1.7 0.00 0.00 0.00 74 1014.7
20260507094125 59 113 0.0 1.7 0.00 0.00 0.00 77 1014.6
20260507093110 59 125 0.0 1.7 0.00 0.00 0.00 77 1014.6
20260507092124 59 110 0.0 0.9 0.00 0.00 0.00 77 1014.5
20260507091110 59 112 0.0 1.7 0.00 0.04 0.00 79 1014.5
20260507090144 57 108 0.0 0.9 0.00 0.04 0.00 82 1014.5
20260507085116 56 112 0.0 1.7 0.00 0.04 0.00 84 1014.5
20260507084127 55 107 0.0 0.9 0.00 0.04 0.00 86 1014.6
20260507083133 55 113 0.0 1.7 0.00 0.04 0.00 87 1014.6
20260507082126 54 122 0.0 0.9 0.00 0.04 0.00 89 1014.6
20260507081118 53 115 0.0 0.0 0.00 0.20 0.00 91 1014.7
20260507080124 53 114 0.0 0.9 0.00 0.20 0.00 92 1014.7
20260507075114 52 114 0.0 0.9 0.00 0.20 0.00 93 1014.7
20260507074120 51 115 0.0 0.9 0.00 0.20 0.00 94 1014.7
20260507073133 51 115 0.0 0.0 0.00 0.20 0.00 95 1014.6
20260507072124 50 115 0.0 0.0 0.00 0.20 0.00 95 1014.6
20260507071111 49 115 0.0 0.0 0.00 0.20 0.00 95 1014.5
20260507070125 48 115 0.0 0.0 0.00 0.20 0.00 95 1014.4
20260507065119 48 115 0.0 0.0 0.00 0.20 0.00 95 1014.3
20260507064124 47 115 0.0 0.0 0.00 0.20 0.00 95 1014.3
20260507063116 47 115 0.0 0.0 0.00 0.20 0.00 95 1014.3
20260507062149 46 115 0.0 0.0 0.00 0.20 0.00 95 1014.3
20260507061114 46 115 0.0 0.0 0.00 0.20 0.00 95 1014.2
20260507060127 45 115 0.0 0.0 0.00 0.20 0.00 95 1014.1
20260507055113 45 115 0.0 0.0 0.00 0.20 0.00 95 1014.1